2024-173B

Last updated on Tue Oct 08 2024 00:02:04 GMT+0000 (Coordinated Universal Time)

1 61228U 24173B 24281.53701096 .00067225 00000+0 26423-2 0 9994 2 61228 97.4031 354.2021 0011958 226.0906 133.9346 15.25351489 2038
UTC large
Height (km)
Speed (km/s)
/
Latitude / Longitude
Inclination (degrees)
Orbital Period (minutes)
Azimuth
Elevation
Range (km)
Doppler Factor

Next 0 passes for location: London (51.5072 / 0.1276)

Sorry there are no passes over London.